SONATE-2

Last updated on Fri Dec 19 2025 00:03:12 GMT+0000 (Coordinated Universal Time)

1 59112U 24043Q 25352.35164917 .00027532 00000+0 57644-3 0 9991 2 59112 97.5329 128.8131 0009174 142.1338 218.0557 15.45371754 99842
UTC large
Height (km)
Speed (km/s)
/
Latitude / Longitude
Inclination (degrees)
Orbital Period (minutes)
Azimuth
Elevation
Range (km)
Doppler Factor

Next 0 passes for location: London (51.5072 / 0.1276)

Sorry there are no passes over London.